Location: Buch
(50.1863°N, 11.0141°E)
Time: 22:44:32
(UTC+00:00)

NOSS 8 (E) - Pass Details

Date: 18 January 2020
Orbit: 394 x 1782 km, 63.3° (Epoch: 17 February)

Event Time Altitude Azimuth Distance (km) Brightness Sun altitude
Exits shadow 05:02:58 65° 198° (SSW) 441 4.2 -19.3°
Maximum altitude 05:03:20 79° 132° (SE) 408 4.1 -19.3°
Drops below altitude 10° 05:06:26 10° 45° (NE) 1,468 7.5 -18.8°
Sets 05:08:33 0° 44° (NE) 2,395 8.6 -18.5°
